Regional Weather Roundup
Issued by NWS

Home | Current Version | Previous Version | Text Only | Print | Product List | Glossary On
Versions: 1 2 3 4 5 6 7 8 9 10 11 12 13 14 15 16 17 18 19 20 21 22 23 24 25 26 27 28 29 30 31 32 33 34 35 36 37 38 39 40 41 42 43 44 45 46 47 48 49 50
000
ASUS45 KABQ 190410
RWRNM
WEATHER ROUNDUP FOR NEW MEXICO
NATIONAL WEATHER SERVICE ALBUQUERQUE NM
1000 PM MDT SAT APR 18 2015

NOTE: "FAIR" MEANS FEW OR NO CLOUDS BELOW 12,000 FEET AGL WITH NO
       SIGNIFICANT WEATHER OR OBSTRUCTIONS TO VISION.

      THIS PRODUCT IS RELEASED AS TWO VERSIONS.  ONE VERSION NEAR
      THE TOP OF THE HOUR CONTAINING PRELIMINARY DATA FROM ALBUQUERQUE
      AND OTHER STATIONS.  A FINAL VERSION WITH ADDITIONAL DATA IS
      ISSUED ABOUT 10 MINUTES AFTER THE HOUR.

NMZ501-503-504-510>518-190500-
NORTHWEST PLATEAU/NORTHCENTRAL MOUNTAINS

CITY           SKY/WX    TMP DP  RH WIND       PRES   REMARKS
FARMINGTON     CLEAR     48  35  60 W23G31    30.00R
LOS ALAMOS     MOCLDY    45  27  48 SW7       29.98S
SANTA FE       CLOUDY    45  31  58 W5        29.96R
ANGEL FIRE     CLOUDY    37  29  74 W6        29.97S WCI  32

$$
NMZ402-403-502-505>509-190500-
WESTCENTRAL MOUNTAINS/SOUTHWEST MOUNTAINS

CITY           SKY/WX    TMP DP  RH WIND       PRES   REMARKS
GALLUP         CLEAR     41  14  33 S6        30.04R
GRANTS         CLEAR     40  18  41 W3        30.04S
SILVER CITY    CLEAR     55  16  21 NW9       30.02R

$$
NMZ407-409-411-412-190500-
SOUTHERN DESERTS

CITY           SKY/WX    TMP DP  RH WIND       PRES   REMARKS
LORDSBURG      FAIR      63  14  15 W12       29.98R
DEMING         CLEAR     60  18  19 W9        29.96R
LAS CRUCES     CLEAR     60  18  19 W12       29.95R
HOLLOMAN AFB   CLEAR     58  26  28 NW8       29.89R
ALAMOGORDO     CLEAR     57  25  28 N7        29.91R
T OR C         CLEAR     57  24  28 W9        29.95R

$$
NMZ519>523-190500-
CENTRAL VALLEYS/CENTRAL HIGHLANDS

CITY           SKY/WX    TMP DP  RH WIND       PRES   REMARKS
ALBUQUERQUE    PTCLDY    55  24  30 N5        29.97S
DOUBLE EAGLE   CLEAR     41  19  42 CALM      29.99R
MORIARTY ARPT  FAIR      48  23  37 W12G17    29.96S
CLINES CORNERS CLEAR     44  26  49 W22       29.93R
BELEN          FAIR      46  21  36 N6        29.97R
SOCORRO        FAIR      56  26  31 N5        29.95R

$$
NMZ524>526-539-540-190500-
SOUTHCENTRAL MOUNTAINS

CITY           SKY/WX    TMP DP  RH WIND       PRES   REMARKS
RUIDOSO        PTCLDY    50  25  37 NW12G21   30.00R

$$
NMZ527>531-190500-
NORTHEAST HIGHLANDS/NORTHEAST PLAINS

CITY           SKY/WX    TMP DP  RH WIND       PRES   REMARKS
LAS VEGAS      MOCLDY    43  19  38 W5        29.93R
RATON          PTCLDY    37  28  70 S6        29.91S WCI  32
CLAYTON        CLOUDY    41  33  73 W9        29.85F

$$
NMZ532>537-190500-
EASTCENTRAL PLAINS

CITY           SKY/WX    TMP DP  RH WIND       PRES   REMARKS
TUCUMCARI      PTCLDY    49  25  39 N12       29.82R
CANNON AFB     NOT AVBL
CLOVIS AIRPORT CLEAR     52  19  28 W12       29.82S

$$
NMZ028-029-538-190500-
SOUTHEAST PLAINS

CITY           SKY/WX    TMP DP  RH WIND       PRES   REMARKS
ROSWELL        CLEAR     60  33  36 W12       29.84R
ARTESIA        CLEAR     61  32  33 SW13      29.85R
CARLSBAD       CLEAR     56  31  38 SW8       29.83R
HOBBS          CLEAR     54  36  50 W8        29.85R


$$



USA.gov is the U.S. government's official web portal to all federal, state and local government web resources and services.